Location: Mannheim
(49.4880°N, 8.4650°E)
Time: 18:09:31
(UTC+01:00)

ISS - Pass Details

Date: 20 November 2023
Orbit: 416 x 417 km, 51.6° (Epoch: 30 November)

Event Time Altitude Azimuth Distance (km) Brightness Sun altitude
Rises 19:00:09 0° 249° (WSW) 2,359 1.3 -22.6°
Reaches altitude 10° 19:02:14 10° 249° (WSW) 1,498 0.0 -23.0°
Enters shadow 19:04:41 45° 248° (WSW) 581 -2.7 -23.4°
